Flag for Martinique Weather past 2 weeks in Fort-de-France, Martinique

Now
90 °F

Broken clouds.


Feels Like: 98 °F
Forecast: 79 / 90 °F
Wind: 12 mph from East

Location: Le Lamentin Airport

Current Time: Sep 2, 2015 at 11:28:59 AM

Latest Report: Sep 2, 2015 at 11:00 AM


Visibility: N/A

Pressure: 30.01 "Hg

Humidity: 59%

Dew point: 73 °F

Location of Fort-de-FranceLocation

Historic Weather in Fort-de-France — Graph

°F

Fort-de-France temperature yesterday

Maximum temperature yesterday: 90 °F (at 10:30 AM)
Minimum temperature yesterday: 79 °F (at 1:00 AM)
Average temperature yesterday: 84 °F

Past Weeks' High & Low Weather Summary

 TemperatureHumidityPressure
High91 °F (Aug 24, 1:00 PM)94% (Aug 23, 3:00 AM)30.04 "Hg (Aug 23, 3:00 AM)
Low75 °F (Aug 23, 3:00 AM)52% (Aug 22, 12:00 PM)29.77 "Hg (Aug 27, 3:00 AM)
Average83 °F78%29.93 "Hg
* Reported Aug 18 10:00 AM — Sep 2 10:00 AM, Fort-de-France, Weather by CustomWeather, © 2015

Note: Actual official high and low records may vary slightly from our data, if they occured in-between our weather recording intervals... More about our weather records

Advertising

Fort-de-France weather history for previous 24 hours

 ConditionsComfort  
Time TempWeatherWind HumidityBarometerVisibility
10:00 AM
Wed, Sep 2
90 °FPartly sunny.12 mph59%30.01 "HgN/A
9:30 AM88 °FPartly sunny.13 mph66%30.01 "HgN/A
9:00 AM86 °FPartly sunny.13 mph66%30.01 "HgN/A
8:30 AM86 °FScattered clouds.13 mph70%30.01 "HgN/A
8:00 AM84 °FScattered clouds.9 mph74%30.01 "HgN/A
7:30 AM84 °FClear.6 mph79%30.01 "HgN/A
7:00 AM81 °FScattered clouds.1 mph84%29.98 "HgN/A
6:30 AM79 °FClear.2 mph89%29.98 "HgN/A
6:00 AM79 °FClear.2 mph89%29.98 "HgN/A
5:30 AM79 °FClear.2 mph84%29.98 "HgN/A
5:00 AM81 °FClear.No wind79%29.98 "HgN/A
4:30 AM81 °FClear.6 mph79%29.98 "HgN/A
4:00 AM81 °FClear.7 mph79%29.98 "HgN/A
3:30 AM81 °FPassing clouds.6 mph84%29.95 "HgN/A
3:00 AM81 °FPartly cloudy.5 mph84%29.98 "HgN/A
2:30 AM81 °FClear.5 mph84%29.98 "HgN/A
2:00 AM81 °FClear.6 mph84%29.98 "HgN/A
1:30 AM81 °FPassing clouds.7 mph84%29.98 "HgN/A
1:00 AM81 °FClear.8 mph84%30.01 "HgN/A
12:00 AM81 °FPassing clouds.9 mph84%30.01 "HgN/A
11:30 PM
Tue, Sep 1
81 °FPassing clouds.10 mph84%30.04 "HgN/A
11:00 PM81 °FPassing clouds.8 mph84%30.04 "HgN/A
10:30 PM81 °FPassing clouds.8 mph89%30.04 "HgN/A
10:00 PM81 °FClear.8 mph89%30.04 "HgN/A
9:30 PM81 °FPassing clouds.8 mph89%30.04 "HgN/A
9:00 PM82 °FClear.8 mph79%30.01 "HgN/A
8:30 PM82 °FClear.7 mph79%30.01 "HgN/A
8:00 PM82 °FClear.7 mph79%29.98 "HgN/A
7:30 PM82 °FClear.8 mph79%29.98 "HgN/A
7:00 PM82 °FClear.9 mph84%29.95 "HgN/A
5:30 PM84 °FScattered clouds.13 mph74%29.95 "HgN/A
5:00 PM88 °FPassing clouds.12 mph70%29.92 "HgN/A
4:30 PM88 °FPassing clouds.12 mph66%29.92 "HgN/A
4:00 PM88 °FScattered clouds.14 mph62%29.92 "HgN/A
3:30 PM90 °FPassing clouds.12 mph67%29.92 "HgN/A
3:00 PM90 °FBroken clouds.13 mph63%29.95 "HgN/A
2:30 PM90 °FPassing clouds.13 mph63%29.95 "HgN/A
2:00 PM90 °FScattered clouds.13 mph63%29.95 "HgN/A
1:30 PM90 °FBroken clouds.14 mph67%29.95 "HgN/A
1:00 PM90 °FScattered clouds.14 mph63%29.98 "HgN/A
12:30 PM90 °FBroken clouds.13 mph63%29.98 "HgN/A
12:00 PM90 °FBroken clouds.14 mph67%30.01 "HgN/A
11:30 AM90 °FPartly sunny.13 mph63%30.01 "HgN/A
11:00 AM90 °FBroken clouds.12 mph67%30.01 "HgN/A
Weather by CustomWeather, © 2015

See weather overviewHow to use our weather pages